Temp
73 74 81 82 84 84 84 83 83 83 83 83 83 83 83 83 83 83 83 83 83 83 83 83 83 83 83 83 83 83 83 82 83 82 82 82 81 82 82 82 82 83 82
74 76 81 82 83 83 83 83 83 83 83 83 83 83 83 83 83 83 83 84 84 84 84 84 83 83 83 83 83 83 83 82 82 83 83 83 82 82 82 83 82 82 82
74 75 79 82 83 83 83 83 83 83 83 83 83 83 83 83 83 83 84 83 83 84 84 84 83 83 83 83 83 83 82 82 82 82 82 80 81 82 82 83 82 82 82
74 75 77 81 82 83 83 83 83 83 83 83 83 83 83 83 83 84 84 83 83 83 83 83 83 83 82 82 82 82 82 82 82 83 80 80 81 82 82 83 82 81 81
74 76 78 82 83 83 82 82 83 83 83 83 83 83 83 83 83 84 84 83 83 83 83 83 83 83 82 82 82 82 82 83 83 83 80 79 78 81 82 82 82 81 81
74 77 81 83 83 82 82 82 82 82 82 83 83 83 83 83 84 84 83 83 83 83 83 83 84 84 84 83 83 83 83 84 82 79 78 79 79 79 82 82 83 81 81
74 76 78 82 82 82 82 82 82 82 82 83 83 83 83 83 83 83 83 83 83 83 83 83 83 84 83 83 83 83 83 84 81 77 78 78 78 79 82 82 82 82 81
74 74 77 82 82 82 82 82 82 83 83 83 83 83 83 83 83 82 82 82 82 82 82 83 83 83 84 84 84 83 83 84 80 79 78 77 77 79 81 82 82 82 81
74 74 75 76 80 83 82 82 82 83 83 83 82 82 83 83 82 82 82 82 82 83 83 83 83 83 83 83 83 83 82 83 80 78 80 77 78 80 81 82 82 82 82
73 73 74 74 75 75 76 82 82 82 82 82 82 82 82 83 83 83 82 81 82 83 83 84 84 84 82 82 82 81 81 83 79 78 77 78 79 80 82 82 82 82 81
72 72 73 73 73 74 75 79 81 82 83 83 82 82 80 77 78 79 81 82 84 84 84 84 84 83 83 81 81 81 82 78 78 77 75 77 79 80 81 82 82 82 81
70 70 72 72 72 73 78 74 74 76 76 76 75 75 75 75 75 80 81 81 82 82 82 82 83 81 77 75 75 78 75 76 77 79 76 79 80 81 81 82 81 81 81
71 73 72 72 72 72 73 72 72 73 73 73 75 74 73 75 75 75 74 75 73 77 77 77 77 77 76 75 75 74 75 76 77 78 79 79 80 81 82 82 81 81 81
70 73 72 73 72 72 72 72 72 73 73 73 74 74 73 73 73 74 74 74 74 75 75 72 74 75 75 75 75 75 76 75 74 75 76 79 80 81 81 82 82 81 81
70 72 72 73 72 72 72 71 72 72 72 73 73 74 74 74 73 74 75 74 72 70 74 74 74 75 75 74 74 75 76 76 77 77 75 79 80 80 81 82 81 82 82
72 71 73 73 72 72 71 71 71 72 73 74 74 75 75 74 74 74 74 73 73 72 74 74 74 75 75 76 78 78 79 78 77 76 78 78 79 79 80 81 81 82 82
70 72 72 73 73 71 71 71 72 73 76 74 74 75 76 76 76 75 74 73 72 72 72 73 75 76 76 77 76 77 78 79 78 77 77 77 78 78 79 81 81 81 81
71 71 72 78 74 72 72 72 73 74 74 74 74 75 76 76 77 76 74 74 74 72 73 75 74 75 75 75 74 76 76 76 77 77 78 78 78 80 79 79 80 80 81
70 70 71 73 73 73 72 73 73 73 74 74 74 74 75 77 79 76 75 75 76 75 74 74 75 74 74 75 76 77 77 76 76 79 77 78 78 78 78 77 79 79 80
71 70 70 71 72 72 72 71 71 72 73 74 74 75 76 75 77 76 76 76 76 76 75 74 73 75 74 73 76 77 76 76 76 75 75 77 76 76 76 76 75 76 78
72 69 69 70 70 70 70 69 69 70 72 73 74 76 76 76 77 76 76 76 76 76 75 75 74 72 74 74 72 74 74 75 74 75 74 73 75 76 75 74 73 73 75
72 71 69 69 70 70 70 70 70 70 71 72 73 75 76 76 76 76 75 75 75 75 74 75 74 73 73 73 72 69 69 72 74 75 73 74 73 75 75 76 74 74 73
71 70 71 70 70 70 70 70 70 71 71 71 72 73 75 75 75 75 75 75 76 75 73 73 74 73 71 72 71 70 66 64 66 70 72 72 72 72 73 73 73 72 73
73 73 72 71 70 70 70 69 69 69 69 70 71 72 73 75 75 76 76 76 74 73 72 71 74 72 71 70 70 71 70 69 65 62 67 70 70 71 71 72 71 72 71
75 74 73 71 71 71 70 71 70 69 70 71 72 72 72 73 75 77 76 75 73 72 72 72 72 72 71 70 69 69 68 67 66 64 61 65 69 70 70 70 71 70 71
76 76 74 71 71 71 71 71 70 70 70 70 71 71 72 73 74 75 76 74 73 72 72 72 72 71 70 69 69 68 67 66 65 64 62 63 61 67 70 70 70 69 69
MSLP
1015.85 1015.64 1015.50 1015.41 1015.35 1015.27 1015.43 1015.44 1015.38 1015.48 1015.57 1015.73 1015.83 1015.73 1015.67 1015.70 1015.74 1015.76 1015.91 1015.97 1016.08 1016.19 1016.22 1016.27 1016.31 1016.44 1016.42 1016.41 1016.51 1016.55 1016.69 1016.74 1016.77 1016.85 1016.96 1017.19 1017.21 1017.17 1017.27 1017.41 1017.58 1017.54 1017.54
1015.83 1015.93 1015.76 1015.78 1015.68 1015.71 1015.86 1015.87 1015.88 1015.90 1015.93 1016.06 1016.07 1016.05 1015.95 1015.96 1016.06 1016.23 1016.30 1016.29 1016.45 1016.47 1016.57 1016.60 1016.63 1016.74 1016.72 1016.75 1016.80 1016.89 1016.91 1016.98 1017.03 1017.07 1017.08 1017.20 1017.36 1017.38 1017.32 1017.29 1017.44 1017.46 1017.58
1016.19 1016.15 1016.04 1016.05 1015.90 1015.92 1016.03 1016.10 1016.06 1016.07 1016.25 1016.41 1016.42 1016.38 1016.34 1016.32 1016.38 1016.56 1016.62 1016.61 1016.70 1016.82 1016.88 1016.94 1016.94 1017.01 1017.10 1017.09 1017.17 1017.26 1017.30 1017.33 1017.28 1017.33 1017.38 1017.53 1017.59 1017.54 1017.46 1017.38 1017.50 1017.63 1017.66
1016.17 1016.36 1016.37 1016.27 1016.22 1016.28 1016.29 1016.28 1016.35 1016.33 1016.47 1016.69 1016.71 1016.66 1016.68 1016.62 1016.68 1016.76 1016.84 1016.92 1017.00 1017.04 1017.20 1017.29 1017.31 1017.48 1017.55 1017.46 1017.46 1017.50 1017.47 1017.53 1017.52 1017.46 1017.61 1017.68 1017.75 1017.68 1017.78 1017.73 1017.74 1017.80 1017.90
1016.52 1016.48 1016.38 1016.40 1016.48 1016.47 1016.55 1016.61 1016.70 1016.72 1016.79 1016.88 1016.95 1016.98 1017.00 1017.01 1016.96 1017.02 1017.11 1017.23 1017.34 1017.43 1017.54 1017.64 1017.67 1017.78 1017.74 1017.73 1017.66 1017.59 1017.53 1017.50 1017.51 1017.49 1017.57 1017.66 1017.75 1017.84 1017.91 1017.96 1017.94 1018.00 1018.17
1016.79 1016.74 1016.48 1016.50 1016.64 1016.79 1016.86 1016.92 1016.99 1017.00 1017.04 1017.10 1017.19 1017.18 1017.22 1017.30 1017.36 1017.34 1017.35 1017.47 1017.62 1017.69 1017.75 1017.77 1017.76 1017.77 1017.83 1017.79 1017.65 1017.63 1017.58 1017.41 1017.37 1017.45 1017.42 1017.56 1017.62 1017.75 1017.85 1018.02 1018.08 1018.22 1018.29
1017.08 1016.91 1016.83 1016.74 1016.87 1017.06 1017.20 1017.25 1017.17 1017.21 1017.26 1017.39 1017.44 1017.42 1017.42 1017.49 1017.63 1017.60 1017.60 1017.62 1017.68 1017.70 1017.77 1017.81 1017.75 1017.68 1017.72 1017.72 1017.66 1017.54 1017.49 1017.33 1017.38 1017.49 1017.33 1017.26 1017.48 1017.66 1017.66 1017.83 1018.06 1018.20 1018.36
1017.05 1017.09 1017.05 1017.01 1017.08 1017.25 1017.41 1017.46 1017.38 1017.41 1017.49 1017.61 1017.72 1017.78 1017.81 1017.77 1017.82 1017.87 1017.84 1017.72 1017.69 1017.71 1017.71 1017.71 1017.76 1017.65 1017.69 1017.56 1017.46 1017.39 1017.26 1017.13 1017.27 1017.31 1017.25 1017.27 1017.29 1017.52 1017.63 1017.69 1017.90 1018.09 1018.24
1017.07 1017.30 1017.41 1017.40 1017.32 1017.42 1017.63 1017.59 1017.57 1017.60 1017.69 1017.85 1017.95 1018.02 1018.03 1017.97 1018.01 1017.92 1017.93 1017.79 1017.66 1017.59 1017.66 1017.74 1017.78 1017.66 1017.53 1017.71 1017.50 1017.32 1017.16 1017.03 1016.92 1017.03 1016.90 1016.91 1017.02 1017.19 1017.35 1017.48 1017.56 1017.84 1018.12
1017.35 1017.62 1017.71 1017.81 1017.85 1017.83 1017.83 1017.83 1017.82 1017.87 1017.98 1017.95 1017.98 1017.99 1018.04 1017.98 1018.00 1017.95 1017.84 1017.75 1017.71 1017.61 1017.54 1017.57 1017.70 1017.60 1017.51 1017.56 1017.44 1017.19 1016.88 1016.91 1016.64 1016.44 1016.54 1016.60 1016.81 1016.89 1017.08 1017.22 1017.31 1017.55 1017.81
1018.06 1018.06 1017.99 1018.06 1018.09 1018.06 1018.14 1018.10 1018.08 1018.06 1018.11 1018.11 1018.16 1018.07 1018.10 1018.12 1018.15 1018.06 1017.85 1017.81 1017.64 1017.49 1017.38 1017.36 1017.43 1017.54 1017.41 1017.40 1017.30 1017.04 1016.47 1016.62 1016.55 1016.81 1016.69 1016.38 1016.64 1016.74 1016.75 1016.90 1017.06 1017.27 1017.58
1018.30 1018.28 1018.18 1018.22 1018.26 1018.41 1018.29 1018.38 1018.39 1018.39 1018.42 1018.38 1018.41 1018.31 1018.21 1018.16 1018.15 1017.96 1017.93 1017.68 1017.69 1017.53 1017.34 1017.26 1017.25 1017.32 1017.69 1017.64 1017.52 1017.14 1016.82 1016.56 1016.77 1016.52 1016.25 1016.16 1016.56 1016.54 1016.70 1016.72 1016.84 1017.01 1017.24
1018.25 1018.29 1018.42 1018.40 1018.47 1018.53 1018.52 1018.63 1018.64 1018.58 1018.51 1018.50 1018.51 1018.42 1018.35 1018.15 1018.05 1018.07 1018.03 1018.01 1017.98 1017.71 1017.42 1017.41 1017.44 1017.42 1017.46 1017.42 1017.40 1017.41 1017.13 1016.83 1016.80 1016.50 1016.40 1016.15 1016.28 1016.42 1016.39 1016.39 1016.39 1016.67 1016.90
1018.35 1018.22 1018.53 1018.37 1018.47 1018.52 1018.55 1018.69 1018.71 1018.59 1018.54 1018.66 1018.61 1018.57 1018.53 1018.39 1018.31 1018.23 1018.23 1018.11 1017.88 1017.74 1017.69 1017.90 1017.67 1017.64 1017.46 1017.51 1017.32 1017.23 1017.12 1016.97 1016.83 1016.51 1016.18 1016.15 1016.19 1016.29 1016.26 1016.20 1016.07 1016.32 1016.42
1018.31 1018.43 1018.45 1018.24 1018.33 1018.48 1018.56 1018.78 1018.73 1018.59 1018.66 1018.68 1018.67 1018.56 1018.49 1018.50 1018.48 1018.35 1018.21 1018.16 1018.09 1017.96 1017.74 1017.64 1017.60 1017.46 1017.34 1017.53 1017.41 1017.26 1016.92 1016.63 1016.48 1016.31 1016.03 1015.79 1015.89 1016.12 1016.25 1016.19 1016.09 1016.15 1016.26
1018.21 1018.38 1018.26 1018.25 1018.22 1018.45 1018.66 1018.72 1018.70 1018.68 1018.58 1018.60 1018.57 1018.46 1018.40 1018.42 1018.31 1018.13 1018.05 1018.08 1017.98 1017.88 1017.62 1017.45 1017.30 1017.24 1017.10 1017.02 1016.80 1016.64 1016.26 1016.07 1015.93 1015.86 1015.80 1015.86 1015.96 1015.94 1015.92 1015.99 1015.99 1015.93 1015.84
1018.04 1018.12 1018.20 1018.12 1018.14 1018.49 1018.70 1018.70 1018.71 1018.58 1018.53 1018.56 1018.43 1018.32 1018.25 1018.15 1018.20 1018.18 1018.12 1018.01 1017.86 1017.70 1017.54 1017.26 1016.99 1016.94 1017.03 1016.91 1016.89 1016.57 1016.38 1016.12 1016.01 1015.83 1015.81 1015.99 1016.03 1015.89 1015.77 1015.65 1015.41 1015.30 1015.21
1017.87 1018.01 1018.01 1018.09 1018.17 1018.36 1018.58 1018.64 1018.63 1018.53 1018.52 1018.43 1018.41 1018.30 1018.11 1017.96 1017.98 1018.06 1018.07 1017.99 1017.82 1017.73 1017.56 1017.39 1017.40 1017.23 1017.17 1017.15 1016.88 1016.61 1016.53 1016.34 1016.07 1015.79 1015.75 1015.73 1015.67 1015.63 1015.57 1015.51 1015.37 1015.14 1014.89
1017.57 1017.80 1017.91 1018.09 1018.26 1018.34 1018.44 1018.57 1018.68 1018.58 1018.42 1018.34 1018.38 1018.27 1018.08 1017.88 1017.87 1017.95 1017.95 1017.87 1017.75 1017.64 1017.54 1017.60 1017.54 1017.56 1017.39 1017.18 1016.92 1016.50 1016.45 1016.47 1016.38 1015.97 1015.81 1015.76 1015.82 1015.82 1015.72 1015.57 1015.24 1014.99 1014.83
1017.26 1017.60 1017.78 1017.96 1018.23 1018.36 1018.42 1018.63 1018.68 1018.53 1018.30 1018.27 1018.29 1018.20 1018.02 1017.91 1017.87 1017.89 1017.86 1017.79 1017.76 1017.68 1017.68 1017.66 1017.60 1017.52 1017.48 1017.37 1017.02 1016.76 1016.45 1016.31 1016.18 1016.04 1016.06 1015.96 1016.04 1016.01 1015.87 1015.63 1015.40 1015.17 1014.90
1016.87 1017.36 1017.57 1017.93 1018.02 1018.37 1018.65 1018.86 1018.76 1018.64 1018.42 1018.32 1018.10 1017.96 1017.87 1017.82 1017.88 1018.00 1017.86 1017.73 1017.63 1017.66 1017.85 1017.90 1017.80 1017.93 1017.60 1017.46 1017.37 1016.71 1016.30 1016.17 1016.34 1016.43 1016.28 1016.20 1016.12 1016.09 1015.93 1015.71 1015.49 1015.35 1015.00
1016.33 1016.73 1017.24 1017.55 1017.72 1018.00 1018.24 1018.38 1018.31 1018.41 1018.36 1018.40 1018.13 1017.92 1017.85 1017.83 1017.89 1017.85 1017.81 1017.72 1017.83 1017.76 1017.91 1017.90 1017.93 1017.89 1017.80 1017.70 1017.66 1017.56 1017.17 1016.74 1016.63 1016.38 1016.28 1016.37 1016.28 1016.15 1015.97 1015.67 1015.54 1015.26 1014.93
1015.81 1016.16 1016.62 1016.98 1017.25 1017.56 1017.85 1018.15 1018.31 1018.38 1018.40 1018.43 1018.23 1018.07 1017.93 1017.92 1017.88 1017.84 1017.67 1017.55 1017.63 1017.69 1017.88 1018.02 1018.10 1018.14 1018.14 1018.00 1018.02 1018.13 1017.87 1017.76 1017.48 1016.90 1016.65 1016.55 1016.54 1016.36 1016.11 1015.80 1015.55 1015.35 1015.13
1015.05 1015.51 1015.92 1016.32 1016.70 1017.09 1017.45 1017.86 1018.15 1018.18 1018.50 1018.41 1018.24 1018.20 1018.14 1017.99 1017.83 1017.82 1017.61 1017.41 1017.62 1017.59 1017.93 1018.10 1018.21 1018.29 1018.25 1018.36 1018.39 1018.32 1018.32 1018.34 1018.09 1017.56 1017.06 1016.81 1016.76 1016.50 1016.27 1015.91 1015.71 1015.48 1015.28
1014.48 1014.88 1015.31 1015.76 1016.13 1016.49 1016.96 1017.31 1017.65 1017.94 1018.13 1018.16 1018.26 1018.32 1018.32 1018.04 1017.92 1017.80 1017.68 1017.67 1017.84 1017.92 1018.04 1018.27 1018.30 1018.35 1018.39 1018.49 1018.63 1018.72 1018.69 1018.73 1018.80 1018.75 1017.73 1016.74 1016.58 1016.71 1016.45 1016.06 1015.81 1015.64 1015.49
1013.82 1014.32 1014.77 1015.32 1015.59 1015.99 1016.35 1016.76 1017.08 1017.48 1017.83 1018.18 1018.19 1018.39 1018.21 1018.15 1018.01 1017.76 1017.61 1017.70 1017.91 1017.97 1018.17 1018.23 1018.42 1018.48 1018.62 1018.67 1018.74 1018.80 1018.91 1019.07 1019.12 1019.15 1018.83 1018.22 1017.68 1016.29 1016.32 1016.14 1015.85 1015.68 1015.48
Wind_Speed
3 3 10 13 13 15 15 15 16 16 16 15 13 13 13 12 12 14 12 13 12 11 11 12 11 10 10 11 9 9 7 7 6 6 6 4 3 5 6 7 6 6 9
4 3 10 11 13 14 15 15 15 14 15 14 12 12 12 11 14 12 12 12 11 11 12 12 11 10 9 9 8 7 6 6 6 5 5 4 2 2 2 5 5 3 8
5 5 5 9 12 13 13 14 13 14 13 12 10 12 12 11 13 11 10 11 12 11 11 12 11 10 8 8 7 6 6 5 4 4 4 4 4 2 1 2 3 2 4
6 5 5 9 11 11 12 12 12 13 13 11 10 11 11 10 11 10 10 10 10 10 11 11 11 10 8 7 6 5 5 3 4 3 3 3 4 3 2 2 3 4 3
5 5 6 10 10 11 10 11 11 12 11 11 9 10 9 10 10 9 9 9 9 9 10 10 9 9 7 7 7 8 8 8 8 6 3 3 1 5 5 4 3 1 2
5 3 7 10 10 10 10 10 10 10 9 10 9 10 9 8 8 8 8 8 8 8 8 8 8 8 8 7 7 7 7 8 7 5 4 6 5 4 6 6 6 4 4
5 3 5 9 10 9 8 8 9 9 8 9 7 9 8 8 7 6 5 6 6 6 6 7 7 7 7 7 6 5 6 8 4 4 4 4 5 7 6 6 7 7 6
6 3 4 8 9 9 8 7 7 8 7 7 7 6 7 6 5 5 4 4 4 4 4 5 6 7 6 7 8 7 7 7 3 3 2 1 3 7 7 7 8 9 8
5 4 3 3 6 8 7 5 7 8 7 7 6 5 5 3 2 2 1 2 3 4 4 4 5 7 7 7 6 6 4 5 0 2 3 1 4 6 8 9 8 8 9
4 4 4 4 4 4 3 5 7 7 5 5 4 3 1 1 2 3 3 5 5 7 6 5 5 6 4 6 7 3 9 7 4 4 3 3 5 7 9 11 10 9 10
2 3 3 4 3 3 4 4 4 4 3 1 2 2 2 1 3 4 6 10 8 9 9 7 7 6 6 4 7 7 10 2 5 2 4 9 8 8 9 12 12 10 10
3 2 3 4 3 3 2 3 2 3 2 2 3 3 3 3 3 5 7 10 9 10 9 10 8 7 3 2 3 5 3 6 5 6 3 13 9 7 10 11 12 12 13
4 3 4 3 3 3 3 1 1 0 1 2 3 2 4 3 3 2 2 2 3 7 3 4 5 3 2 1 2 3 5 5 3 4 5 10 11 11 11 15 13 13 14
5 4 4 4 4 3 3 1 1 1 1 1 3 4 3 3 3 3 2 3 3 2 3 3 2 3 3 3 5 6 7 5 3 4 6 9 11 12 15 16 13 12 12
5 4 5 4 3 4 3 1 1 1 1 1 2 3 2 3 3 3 2 2 3 3 2 2 2 2 3 2 5 6 7 6 6 4 3 13 10 8 9 11 10 11 11
5 6 5 5 5 4 2 3 2 2 2 2 3 3 4 3 3 3 3 3 2 2 2 2 2 2 3 4 3 3 4 4 5 6 5 5 9 10 8 8 9 11 13
5 6 6 5 4 4 3 3 3 2 2 2 3 4 4 4 2 3 3 3 3 2 4 3 3 3 3 3 4 5 4 5 6 6 5 4 5 8 9 10 11 11 14
5 7 6 4 6 5 4 3 2 3 2 2 2 2 4 4 2 2 3 3 3 3 2 3 2 3 2 3 2 3 3 3 4 5 4 2 3 3 5 8 9 9 11
8 7 6 5 6 6 4 2 3 4 3 2 2 3 5 5 2 0 2 3 4 2 2 2 2 2 3 4 4 3 2 2 2 3 4 4 5 4 4 7 10 9 12
8 7 6 5 6 5 2 1 2 3 3 2 2 3 4 4 4 2 3 3 3 2 2 2 2 1 2 2 4 5 4 3 1 2 5 3 3 5 5 6 6 7 15
8 8 8 6 7 3 1 1 3 4 2 2 2 3 4 5 4 2 3 3 3 2 3 3 2 3 2 3 3 3 2 1 2 1 2 3 5 7 7 6 4 4 6
11 11 8 8 7 5 3 3 3 1 2 3 3 4 4 5 4 4 4 4 3 3 3 2 2 2 2 2 2 1 3 3 3 4 4 5 6 6 7 8 7 8 6
11 11 11 10 8 7 7 2 1 1 1 2 1 2 3 5 5 5 5 3 1 1 2 3 3 2 2 2 4 1 3 2 3 2 3 3 6 5 6 7 7 7 7
12 9 10 10 9 7 8 5 6 4 3 3 2 1 4 5 6 5 4 2 1 2 3 3 4 2 1 2 1 2 1 2 3 4 2 3 4 4 6 7 6 6 6
10 10 10 9 9 9 8 8 7 5 3 1 1 3 4 4 4 5 3 1 1 2 2 3 3 3 1 2 2 2 2 1 1 2 7 9 3 3 4 6 4 5 6
11 10 10 10 11 9 9 9 9 8 6 3 3 3 3 2 3 4 3 1 1 2 2 2 3 4 4 3 2 2 2 1 2 2 3 5 8 8 7 4 6 4 6
Wind_Direction
26 9 97 95 95 92 94 91 91 95 96 97 102 107 110 109 106 105 105 100 100 98 95 87 83 83 83 82 77 74 66 57 59 69 84 98 110 116 125 111 99 102 92
112 102 108 98 96 96 96 94 94 96 100 101 108 111 112 117 112 103 100 100 101 97 90 87 85 77 77 78 76 73 67 56 49 45 47 47 64 129 116 104 104 93 100
97 106 107 108 101 101 98 100 109 109 107 105 110 117 112 103 100 105 100 92 87 86 83 84 86 83 74 68 69 64 54 38 33 34 32 20 356 292 134 132 94 110 127
122 118 105 110 105 106 107 109 105 105 102 103 103 112 107 108 100 98 96 90 86 83 78 74 75 70 60 50 43 40 40 26 346 349 19 1 334 334 303 225 165 175 143
107 139 126 113 115 111 110 104 103 103 107 105 104 97 98 95 97 96 95 89 79 67 64 60 58 59 46 31 24 15 12 1 337 306 253 256 271 319 282 284 243 176 201
127 127 138 130 122 116 112 108 105 109 107 110 113 106 106 102 101 101 91 77 69 61 53 46 45 47 29 21 10 12 356 354 10 335 286 243 218 255 282 276 268 246 240
109 111 136 131 127 113 112 118 115 113 105 107 114 111 110 102 101 97 78 59 55 50 38 29 17 19 27 354 355 352 343 338 18 351 319 234 227 223 242 263 267 266 238
126 150 144 136 128 122 121 117 115 109 110 115 105 92 89 94 89 77 57 37 20 11 2 4 353 348 360 343 339 339 333 330 34 356 35 50 229 237 249 250 253 258 272
136 144 115 109 136 128 118 113 124 101 92 89 90 81 74 74 85 89 10 324 313 312 311 334 331 327 339 336 330 344 323 338 231 239 283 189 219 233 252 254 255 256 263
152 125 132 79 73 80 98 116 90 90 100 110 120 106 93 43 308 310 278 278 291 290 294 306 307 302 312 347 324 250 309 292 240 257 222 189 213 226 251 251 253 247 250
96 102 120 117 104 92 87 122 104 133 133 81 29 2 13 313 302 302 300 297 296 296 298 306 298 293 320 261 289 324 305 276 274 269 239 244 224 223 236 239 245 239 250
146 153 168 146 124 100 93 73 77 54 30 353 345 338 329 305 293 299 306 310 331 313 315 315 316 359 65 296 304 322 306 302 310 264 256 265 257 247 251 243 240 236 240
160 182 169 144 136 150 111 104 359 39 306 335 334 335 329 322 321 315 306 336 298 309 323 345 335 338 271 289 332 295 299 290 281 268 264 277 286 281 268 247 236 233 239
176 180 153 165 163 161 134 137 250 280 337 313 316 329 326 336 331 330 333 325 319 339 335 342 338 313 304 334 284 290 281 277 270 272 260 269 294 271 277 271 239 231 237
177 176 186 174 170 169 162 151 212 272 328 303 304 294 308 300 302 310 308 326 339 331 313 309 302 336 326 323 256 257 256 257 262 265 276 288 292 290 307 298 273 245 246
179 189 193 184 172 156 177 214 219 238 260 311 289 265 258 239 251 305 333 344 337 328 337 315 315 320 318 313 301 277 300 283 276 257 252 260 281 289 291 301 287 272 265
201 189 200 191 184 165 201 218 201 253 321 304 294 290 268 262 299 332 324 332 317 332 335 329 334 331 329 328 321 329 333 314 322 313 301 309 316 309 303 302 296 281 275
187 198 196 194 190 204 201 203 241 264 272 293 306 289 319 312 247 307 331 319 318 334 329 324 331 322 320 324 319 325 324 316 333 348 354 309 279 302 310 317 311 314 308
196 196 206 209 200 208 204 222 248 260 263 281 299 318 332 335 292 23 316 308 320 349 350 347 327 357 329 330 317 307 325 352 11 40 34 6 6 2 339 324 327 325 324
193 192 203 210 206 207 195 270 276 269 271 255 278 306 312 323 319 335 307 292 302 326 356 350 304 318 277 316 322 322 308 321 29 31 3 7 6 356 353 340 331 327 326
191 188 201 197 215 159 152 211 255 246 286 306 307 321 333 343 8 312 293 298 302 346 356 347 339 348 320 350 315 310 311 284 21 352 352 24 20 7 354 347 337 331 326
194 205 199 205 206 197 174 199 206 220 258 259 287 299 323 332 350 306 295 286 324 351 359 352 11 320 275 17 344 279 342 339 358 344 10 24 24 5 5 354 352 348 338
194 198 202 204 203 204 200 171 239 344 335 324 302 313 339 342 334 317 308 272 304 354 4 358 344 349 348 5 36 2 345 306 321 353 2 7 15 356 347 342 353 353 4
198 190 200 199 200 204 188 189 199 199 214 226 215 274 313 336 332 338 303 254 27 17 357 350 2 9 26 26 14 18 37 328 333 321 288 334 355 334 331 331 346 351 3
190 190 196 199 206 204 192 197 203 217 220 238 265 299 308 317 327 338 12 103 32 8 357 5 23 39 46 57 30 2 19 16 308 282 310 322 306 313 308 315 340 350 360
195 192 192 197 215 206 198 198 201 210 212 224 248 265 287 311 321 329 344 20 40 13 17 13 51 57 55 67 68 66 53 347 330 308 289 313 317 323 319 336 345 355 344